Location: ???? ?????????
(31.1304°N, 31.7111°E)
Time: 12:08:53
(UTC+00:00)

YAOGAN 1 - Pass Details

Date: 29 October 2020
Orbit: 618 x 620 km, 97.9° (Epoch: 26 November)

Event Time Altitude Azimuth Distance (km) Brightness Sun altitude
Rises 15:34:53 0° 123° (ESE) 2,885 5.6 -6.6°
Reaches altitude 10° 15:38:06 10° 97° (E) 1,984 4.6 -7.3°
Maximum altitude 15:40:10 13° 68° (ENE) 1,770 4.3 -7.8°
Drops below altitude 10° 15:42:15 10° 39° (NE) 1,989 4.7 -8.2°
Sets 15:45:28 0° 13° (NNE) 2,899 5.8 -8.9°
